SCP
0 0 0 0 0 0 0 0 0 0 0 0 0 0 0 0 0 0 0 0 0 0 0 0 0 0 0 0 0 0 0 1 1 1 0 0 0 0 0 0 0 0 0
0 0 0 0 0 0 0 0 0 0 0 0 0 0 0 0 0 0 0 0 0 0 0 0 0 0 0 0 0 0 0 0 1 0 0 0 0 0 0 0 0 0 0
0 0 0 0 0 0 0 0 0 0 0 0 0 0 0 0 0 0 0 0 0 0 0 0 0 0 0 0 1 0 0 0 0 0 0 0 0 0 0 0 0 0 0
0 0 0 0 0 0 0 0 0 0 0 0 0 0 0 0 0 0 0 0 0 0 0 0 0 0 0 0 1 1 0 0 0 0 0 0 0 0 0 0 0 0 0
0 0 0 0 0 0 0 0 0 0 0 0 0 0 0 0 0 0 0 0 0 0 0 0 0 0 0 0 0 1 1 0 0 0 0 0 0 0 0 0 0 0 0
0 0 0 0 0 0 0 0 0 0 0 0 0 0 0 0 0 0 0 0 0 0 0 0 0 0 0 0 1 1 1 0 0 0 0 0 0 0 0 0 0 0 0
0 0 0 0 0 0 0 0 0 0 0 0 0 0 0 0 0 0 0 0 0 0 0 0 0 0 0 0 1 1 0 0 0 0 0 0 0 0 0 0 0 0 0
0 0 0 0 0 0 0 0 0 0 0 0 0 0 0 0 0 0 0 0 0 0 0 0 0 0 0 0 0 0 0 0 0 0 0 0 0 0 0 0 0 0 0
0 0 0 0 0 0 0 0 0 0 0 0 0 0 0 0 0 0 0 0 0 0 0 0 0 0 0 0 0 0 0 0 0 0 0 0 0 0 0 0 0 0 0
0 0 0 0 0 0 0 0 0 0 0 0 0 0 0 0 0 0 0 0 0 0 0 0 0 0 0 0 0 0 0 0 0 0 0 0 0 0 0 0 0 0 0
0 0 0 0 0 0 0 0 0 0 0 0 0 0 0 0 0 0 0 0 0 0 0 0 0 0 0 0 0 0 0 0 0 0 0 0 0 0 0 0 0 0 0
0 0 0 0 0 0 0 0 0 0 0 0 0 0 0 0 0 0 0 0 0 0 0 0 0 0 0 0 0 0 0 0 0 0 0 0 0 1 0 0 0 0 0
0 0 0 0 0 0 0 0 0 0 0 0 0 0 0 0 0 0 0 0 0 0 0 0 0 0 0 0 0 0 0 0 0 0 0 0 0 0 0 0 0 0 0
0 0 0 0 0 0 0 0 0 0 0 0 0 0 0 0 0 0 0 0 0 0 0 0 0 0 0 0 0 0 0 0 0 0 0 0 0 0 0 0 0 0 0
0 0 0 0 0 0 0 0 0 0 0 0 0 0 0 0 0 0 0 0 0 0 0 0 0 0 0 0 0 0 0 0 0 0 0 0 1 1 0 0 0 0 0
0 0 0 0 0 0 0 0 0 0 0 0 0 0 0 0 0 0 0 0 0 0 0 0 0 0 0 0 0 0 0 0 0 0 0 0 1 1 1 1 1 1 1
0 0 1 0 0 0 0 0 0 0 0 0 0 0 0 0 0 0 0 0 0 0 0 0 0 0 0 0 0 0 0 0 0 0 0 0 1 1 1 1 1 1 1
0 0 1 1 0 0 0 0 0 0 0 0 0 0 0 0 0 0 0 0 0 0 0 0 0 0 0 0 0 0 0 0 0 0 0 0 1 1 1 1 1 1 1
1 1 1 1 0 0 0 0 0 0 0 0 0 0 0 0 0 0 0 0 0 0 0 0 0 0 0 0 0 0 0 0 0 0 0 0 1 1 1 1 1 1 1
1 1 1 1 1 1 1 1 1 1 1 1 0 0 0 0 0 0 1 1 0 0 0 0 0 0 0 0 0 0 0 0 0 0 0 0 0 1 1 1 1 1 1
1 1 1 1 1 2 2 2 1 1 1 1 1 0 0 0 0 1 1 1 1 1 0 0 0 0 0 0 0 0 0 0 0 0 0 0 0 0 0 0 1 1 1
2 2 2 2 2 3 4 3 3 2 2 1 1 1 1 0 0 1 1 1 1 1 1 1 1 1 1 0 0 0 0 0 0 0 0 0 0 0 0 0 0 0 0
3 3 2 3 3 5 5 4 4 3 3 2 2 1 1 1 1 1 1 1 1 1 1 1 1 1 1 1 1 1 1 1 1 0 0 0 0 0 0 0 0 0 0
3 3 3 4 5 6 6 5 4 4 3 3 2 2 1 1 1 1 1 1 1 1 1 1 1 1 1 1 1 1 1 1 1 1 1 0 0 0 0 0 0 0 0
3 3 4 5 6 7 6 6 5 4 4 3 3 2 2 1 1 1 1 1 1 1 1 1 1 1 1 1 1 1 1 1 1 1 1 1 0 0 0 0 0 0 0
3 3 4 6 7 8 7 7 6 5 4 4 3 2 2 1 1 1 1 1 1 1 1 1 1 1 1 1 1 1 1 1 1 1 1 1 1 0 0 0 0 0 0
Wind_Speed
11 13 17 15 15 15 14 13 12 12 11 11 11 10 10 9 9 8 8 8 7 7 6 6 6 6 6 6 7 7 7 8 8 7 5 4 3 3 3 2 2 3 6
14 15 17 16 15 15 14 13 12 11 11 11 11 10 10 9 9 8 8 8 8 7 6 6 6 6 6 7 7 7 7 7 7 6 4 5 5 4 4 2 5 6 5
16 15 17 15 15 14 14 13 12 11 11 11 11 10 10 9 9 8 8 8 8 7 7 6 6 6 6 6 7 7 7 6 6 5 3 3 7 6 5 4 6 7 6
15 14 15 16 15 14 13 13 12 12 11 11 11 10 9 9 8 8 8 8 8 8 7 7 6 6 6 6 6 6 5 5 5 4 3 4 5 8 5 5 7 7 7
14 13 15 15 14 14 13 13 12 12 11 11 10 9 9 8 8 8 8 8 9 9 9 8 7 7 6 5 4 4 4 4 4 5 3 4 5 7 6 6 6 6 7
14 13 15 14 14 13 13 13 12 12 11 11 10 9 9 8 7 7 8 9 9 9 10 9 9 8 7 6 5 6 5 5 5 2 2 3 5 7 6 6 5 6 6
14 13 15 15 14 13 13 13 12 12 11 11 10 9 8 8 7 7 8 9 9 9 10 9 9 9 8 8 8 9 7 2 1 2 2 3 6 6 5 5 5 5 5
13 13 14 15 13 13 13 13 13 12 12 11 11 10 9 8 7 7 7 8 8 9 9 9 8 8 8 8 9 9 6 2 4 3 3 4 6 3 3 3 3 4 4
13 12 12 14 14 13 12 13 13 13 12 11 11 10 9 8 7 7 7 7 7 8 8 8 8 7 7 7 7 8 7 3 3 4 4 5 4 2 3 3 3 3 3
12 12 12 12 13 13 13 13 13 13 12 12 11 10 10 9 8 7 8 7 7 7 7 7 7 7 6 6 6 7 4 5 4 3 3 7 6 4 4 4 4 3 3
11 11 11 11 10 10 11 12 13 12 11 11 11 11 10 9 9 9 7 7 7 7 7 7 7 5 4 7 7 5 6 0 3 2 4 7 5 5 5 4 4 3 3
13 12 10 10 10 10 8 9 8 9 10 10 9 11 8 6 4 4 11 6 7 7 7 6 5 6 7 6 8 7 2 1 1 1 5 6 3 3 3 3 3 2 1
13 12 10 10 10 9 7 7 6 5 6 8 9 9 6 6 5 5 6 8 8 8 7 7 8 4 3 2 1 2 2 2 1 1 5 5 3 1 1 2 2 1 1
11 12 11 11 10 10 8 7 7 6 6 6 8 10 7 4 5 5 4 5 5 4 3 4 2 4 3 4 3 1 2 1 1 1 5 5 4 3 3 3 2 2 2
11 11 12 11 11 10 8 6 7 7 6 7 6 7 8 6 6 5 5 4 5 4 5 3 4 4 3 2 2 2 2 2 1 1 3 6 4 3 2 3 3 2 2
11 11 11 12 11 10 9 8 7 6 6 6 7 8 9 6 5 5 5 5 5 5 4 4 4 4 3 2 2 3 2 2 2 2 2 5 5 4 3 0 1 1 1
10 11 11 11 11 11 10 9 7 6 7 6 6 9 9 8 7 6 5 6 6 6 6 4 4 3 2 3 3 2 1 2 2 3 3 1 4 6 4 3 2 2 2
10 11 11 9 11 11 10 9 7 7 7 6 7 7 9 9 8 6 5 5 6 6 5 4 4 4 4 4 3 3 2 2 1 2 1 2 2 3 6 6 4 3 3
10 11 12 13 12 12 11 9 8 7 7 6 7 7 9 10 9 7 5 5 7 6 6 5 5 5 5 4 3 3 2 2 1 2 1 2 3 2 4 7 7 7 5
11 12 13 13 13 12 10 9 7 7 7 7 7 7 10 8 9 7 4 5 6 6 5 6 6 5 4 4 5 4 4 3 4 3 1 1 2 3 2 3 5 7 7
12 14 14 14 14 12 9 9 8 8 7 7 7 9 10 9 9 8 5 6 6 6 8 8 6 7 6 6 5 5 6 7 6 4 4 4 4 2 4 4 2 2 5
10 13 15 15 15 14 11 10 8 7 6 6 5 7 10 11 10 8 9 6 7 7 9 9 8 6 6 6 6 6 5 6 6 7 5 5 5 5 4 4 5 3 2
9 11 12 14 14 14 13 8 6 5 4 4 6 6 8 10 9 9 9 8 8 8 8 9 10 10 7 7 7 6 5 4 4 6 8 7 6 4 5 5 5 5 4
10 9 10 11 12 12 12 10 10 5 4 3 3 4 6 8 8 8 8 8 7 6 7 8 9 8 8 7 7 7 7 4 4 4 5 7 7 6 7 5 5 5 5
11 7 4 5 8 10 10 10 8 4 2 1 0 3 4 6 7 8 7 7 7 6 7 7 7 8 7 8 8 7 8 6 9 7 5 5 6 7 7 7 6 5 5
10 6 2 4 7 9 10 9 9 8 5 2 1 2 3 4 5 7 6 6 6 5 6 6 6 8 8 8 8 7 7 7 8 8 7 6 4 5 6 6 6 6 6
Wind_Direction
154 146 144 147 145 141 138 135 133 132 132 133 132 130 125 119 114 110 109 107 104 102 101 99 99 100 103 115 129 135 128 123 121 119 115 108 99 113 126 99 257 147 109
148 145 146 149 149 145 142 140 138 137 136 135 133 129 125 120 115 109 104 101 98 97 96 95 95 95 99 109 120 121 120 118 116 114 123 138 115 104 111 72 17 77 101
147 144 149 152 151 149 147 146 145 143 140 138 134 130 126 123 118 113 107 101 97 96 95 94 94 93 94 99 108 115 116 114 113 118 189 146 119 114 115 105 86 87 93
148 149 150 151 153 152 152 151 150 147 143 140 136 132 129 125 121 115 109 101 96 93 92 92 91 89 90 94 102 111 115 116 123 183 195 100 108 108 110 104 96 95 94
150 149 143 154 154 155 155 153 153 150 148 146 143 140 136 131 126 120 112 104 96 89 84 85 88 87 84 89 101 112 119 127 152 231 85 89 90 103 103 101 102 102 101
154 152 147 157 157 159 157 156 156 155 154 154 152 148 142 136 131 127 120 109 100 92 84 79 81 80 76 78 90 97 101 119 202 141 108 112 102 104 108 108 108 108 103
160 156 152 160 161 162 160 160 160 159 158 159 158 152 145 140 137 134 127 116 107 98 88 80 76 73 69 79 94 93 97 123 163 111 107 92 88 101 110 114 115 115 117
164 162 155 161 166 166 165 164 161 161 162 163 161 156 150 145 141 137 129 123 113 103 93 85 78 74 72 81 97 94 85 332 112 96 90 82 80 97 103 109 122 126 127
167 170 166 167 172 172 171 170 167 166 167 167 165 161 157 151 145 138 128 122 119 113 103 94 87 82 76 81 96 99 90 14 60 70 76 72 65 75 100 91 95 102 121
176 177 179 177 174 174 174 175 174 172 171 169 168 166 161 156 154 148 156 133 135 126 114 105 98 92 83 87 105 117 141 221 62 86 66 70 51 61 82 88 82 74 85
185 185 186 183 179 179 175 168 178 177 174 173 173 169 176 181 168 172 130 134 144 134 124 114 107 113 133 122 115 144 212 290 83 43 66 56 45 63 81 87 82 75 72
187 190 190 191 182 182 178 169 183 179 177 188 180 175 191 177 161 143 120 152 147 138 134 121 131 175 217 155 144 198 195 172 258 58 77 52 27 63 91 98 96 85 65
186 188 196 196 190 185 181 176 180 180 183 191 182 178 191 172 164 170 162 164 165 175 167 154 194 180 169 113 156 165 46 316 343 3 85 49 347 315 156 153 152 155 224
189 189 193 200 193 193 191 183 183 183 185 188 189 183 183 185 183 169 185 170 172 184 172 196 196 163 170 168 165 112 116 307 6 352 77 43 346 298 244 208 200 200 226
190 193 194 198 200 194 194 194 194 190 189 189 186 191 187 186 189 170 184 179 197 178 178 198 213 163 181 136 63 23 66 60 39 43 96 77 28 6 305 239 217 224 227
195 197 191 197 200 199 191 198 200 192 193 198 185 200 193 189 192 180 188 184 192 189 186 198 186 172 184 153 107 58 27 60 73 95 81 124 101 54 33 49 185 197 225
205 203 196 199 199 201 202 200 198 197 194 197 193 204 197 193 192 192 190 185 188 189 191 202 169 186 169 159 158 127 79 27 16 72 75 69 122 106 74 68 88 101 115
220 217 204 199 205 201 202 202 199 202 198 198 196 206 205 199 199 191 189 190 193 191 197 190 205 197 185 195 184 174 173 150 224 54 135 120 96 108 102 77 77 89 107
235 227 216 208 208 202 200 202 204 202 199 205 203 203 212 209 206 197 198 192 189 199 206 207 211 215 207 202 206 204 223 209 189 233 190 113 113 121 115 108 95 74 74
247 236 225 213 213 205 197 202 197 205 203 206 207 208 215 218 220 213 201 209 202 207 213 221 215 227 236 220 224 216 229 234 227 230 240 208 195 138 122 139 149 111 83
253 238 230 219 211 206 194 196 194 198 203 206 209 213 215 221 226 228 224 216 214 218 218 222 222 220 226 225 227 223 221 230 238 205 227 228 202 168 204 175 181 169 134
267 248 235 222 215 205 197 195 194 192 200 205 210 215 220 223 223 228 228 225 222 224 224 223 218 223 221 220 230 236 234 213 218 224 214 229 229 187 221 204 188 183 193
288 263 243 230 214 203 193 184 170 162 162 180 206 214 220 225 227 227 230 228 227 224 224 225 219 221 220 217 229 231 240 246 212 201 213 214 222 217 217 216 214 189 178
314 288 255 231 210 191 181 176 170 172 179 195 201 211 213 216 219 220 226 229 227 226 228 227 221 222 221 215 216 232 245 259 251 220 201 218 215 218 225 207 226 215 194
331 316 275 208 177 165 164 162 148 126 109 71 18 236 217 211 214 213 216 219 227 226 230 229 226 226 224 225 218 214 225 237 247 255 230 199 201 215 221 219 212 219 207
348 351 13 132 139 144 142 133 120 111 93 68 312 251 224 207 207 207 204 211 219 224 228 227 227 226 235 235 231 225 220 222 227 232 236 226 215 208 208 215 222 217 216